GW1682 Weather Reports


Display with metric or nautical units.
time (UTC)temp
F
wind
direction
speed
MPH
gust
MPH
rain 1hr
in
rain 24hr
in
rain mn
in
humidity
%
barometer
mb
20260903183501 84 343 1.0 6.0 0.00 0.00 0.00 38 1013.0
20260903181956 84 32 1.0 5.0 0.00 0.00 0.00 38 1012.8
20260903180500 84 23 0.0 5.0 0.00 0.00 0.00 38 1012.8
20260903174958 84 275 1.0 10.0 0.00 0.00 0.00 39 1012.8
20260903173501 84 149 2.0 6.0 0.00 0.00 0.00 39 1012.6
20260903164955 85 35 2.0 9.0 0.00 0.00 0.00 40 1012.4
20260903163459 86 183 4.0 9.0 0.00 0.00 0.00 39 1012.4
20260903161957 86 7 5.0 11.0 0.00 0.00 0.00 38 1012.2
20260903160455 87 341 4.0 11.0 0.00 0.00 0.00 38 1012.1
20260903153453 87 35 4.0 14.0 0.00 0.00 0.00 39 1012.0
20260903150453 88 63 4.0 14.0 0.00 0.00 0.00 40 1012.0
20260903144950 88 11 6.0 14.0 0.00 0.00 0.00 40 1012.2
20260903141948 89 0 6.0 14.0 0.00 0.00 0.00 36 1012.0
20260903140442 90 341 10.0 19.0 0.00 0.00 0.00 37 1012.0
20260903133447 91 0 7.0 14.0 0.00 0.00 0.00 38 1011.7
20260903131942 91 0 7.0 15.0 0.00 0.00 0.00 38 1011.8
20260903130442 91 327 3.0 14.0 0.00 0.00 0.00 38 1012.0
20260903124936 91 13 6.0 13.0 0.00 0.00 0.00 38 1012.0
20260903123435 91 0 8.0 15.0 0.00 0.00 0.00 39 1012.1
20260903121933 91 0 7.0 14.0 0.00 0.00 0.00 39 1012.1
20260903114930 91 355 6.0 18.0 0.00 0.00 0.00 39 1012.5
20260903113432 91 17 6.0 16.0 0.00 0.00 0.00 39 1012.5
20260903111930 90 344 5.0 16.0 0.00 0.00 0.00 39 1012.6
20260903110429 91 55 4.0 13.0 0.00 0.00 0.00 39 1012.6
20260903104929 90 79 6.0 13.0 0.00 0.00 0.00 39 1012.7
20260903103431 90 336 3.0 13.0 0.00 0.00 0.00 40 1012.6
20260903101930 90 20 6.0 14.0 0.00 0.00 0.00 40 1012.8
20260903100428 91 110 5.0 14.0 0.00 0.00 0.00 38 1012.8
20260903094929 90 314 4.0 15.0 0.00 0.00 0.00 38 1012.9
20260903093429 90 11 1.0 16.0 0.00 0.00 0.00 38 1013.0
20260903091928 90 337 5.0 16.0 0.00 0.00 0.00 41 1013.3
20260903090428 89 68 6.0 14.0 0.00 0.00 0.00 40 1013.3
20260903084931 89 28 4.0 16.0 0.00 0.00 0.00 40 1013.4
20260903083429 88 37 6.0 11.0 0.00 0.00 0.00 41 1013.5
20260903081929 87 317 10.0 15.0 0.00 0.00 0.00 41 1013.7
20260903080429 87 0 5.0 11.0 0.00 0.00 0.00 43 1013.4
20260903074936 86 348 7.0 15.0 0.00 0.00 0.00 45 1013.6
20260903071929 85 350 4.0 14.0 0.00 0.00 0.00 47 1013.5
20260903070429 84 1 8.0 13.0 0.00 0.00 0.00 46 1013.6
20260903063428 84 331 5.0 12.0 0.00 0.00 0.00 46 1013.3
20260903061929 83 340 5.0 11.0 0.00 0.00 0.00 49 1013.3
20260903060428 82 6 3.0 11.0 0.00 0.00 0.00 51 1013.3
20260903054929 81 347 2.0 13.0 0.00 0.00 0.00 51 1013.3
20260903050429 80 353 5.0 15.0 0.00 0.00 0.00 52 1013.5
20260903044934 81 320 9.0 16.0 0.00 0.00 0.00 50 1013.6
20260903043428 81 20 3.0 11.0 0.00 0.00 0.00 47 1013.5
20260903041929 82 0 5.0 9.0 0.00 0.00 0.00 45 1013.3
20260903040428 82 338 4.0 7.0 0.00 0.00 0.00 44 1013.3
20260903034929 82 7 3.0 10.0 0.00 0.00 0.00 43 1013.3
20260903033435 83 357 0.0 6.0 0.00 0.00 0.00 42 1013.1
20260903031929 83 35 2.0 12.0 0.00 0.00 0.00 41 1013.1
20260903024929 83 24 3.0 11.0 0.00 0.00 0.00 40 1013.0
20260903023429 83 34 1.0 5.0 0.00 0.00 0.00 41 1013.1
20260903021931 83 131 2.0 7.0 0.00 0.00 0.00 41 1013.1
20260903020431 83 4 2.0 7.0 0.00 0.00 0.00 40 1013.1
20260903014929 83 3 3.0 10.0 0.00 0.00 0.00 40 1013.0
20260903013429 83 37 6.0 11.0 0.00 0.00 0.00 39 1013.1
20260903011929 83 21 2.0 9.0 0.00 0.00 0.00 40 1013.2
20260903010428 82 357 2.0 6.0 0.00 0.00 0.00 41 1013.2
20260903003431 82 0 1.0 5.0 0.00 0.00 0.00 40 1013.1
20260903001929 83 80 2.0 5.0 0.00 0.00 0.00 39 1013.0
20260903000429 83 0 2.0 7.0 0.00 0.00 0.00 40 1013.0
20260902234931 83 93 1.0 4.0 0.00 0.00 0.00 40 1013.1
20260902233434 83 343 0.0 6.0 0.00 0.00 0.00 39 1013.2
20260902231930 83 0 2.0 10.0 0.00 0.00 0.00 39 1013.3
20260902230429 84 351 3.0 5.0 0.00 0.00 0.00 39 1013.3
20260902224931 84 1 1.0 5.0 0.00 0.00 0.00 38 1013.4
20260902223428 84 18 2.0 5.0 0.00 0.00 0.00 38 1013.5
20260902221929 84 14 1.0 5.0 0.00 0.00 0.00 38 1013.7
20260902220428 85 338 2.0 5.0 0.00 0.00 0.00 38 1013.6
20260902214929 84 10 1.0 3.0 0.00 0.00 0.00 38 1013.8
20260902213429 84 0 1.0 4.0 0.00 0.00 0.00 38 1013.9
20260902211929 84 353 2.0 5.0 0.00 0.00 0.00 38 1014.0
20260902210428 85 0 0.0 3.0 0.00 0.00 0.00 37 1014.1
20260902204934 85 321 0.0 0.0 0.00 0.00 0.00 36 1014.1
20260902193431 87 96 0.0 7.0 0.00 0.00 0.00 34 1014.2
20260902191929 87 358 2.0 9.0 0.00 0.00 0.00 34 1014.2
20260902190432 87 27 3.0 11.0 0.00 0.00 0.00 34 1014.1